Wind_Speed
5 5 7 7 6 5 6 7 6 7 8 8 8 7 7 8 9 10 8 8 8 7 8 7 8 8 10 12 9 6 6 6 7 9 9 8 9 9 9 8 8 8 8 8 8 8 7 7 7 7 7 7 7 7 6 6 6 5 4 4 4 3 3 4 4 5 5 5 6 6 7 8 8 9 9 10 11 11 11 11 11 11 11 11 11
6 5 6 6 4 4 5 5 5 6 7 7 6 6 6 7 7 8 8 8 7 7 9 7 7 7 8 11 11 7 6 6 6 7 7 7 8 8 8 8 8 8 8 7 7 7 7 7 7 7 6 6 6 6 6 5 4 3 3 3 3 3 3 4 5 5 5 5 6 6 7 8 8 9 9 10 10 10 10 10 10 11 11 10 10
8 7 6 6 5 3 3 3 3 5 8 7 6 5 6 7 8 8 9 10 6 6 9 8 7 7 7 9 11 9 6 6 6 5 6 6 7 7 8 8 7 7 7 7 6 6 6 6 7 7 7 6 6 5 5 4 3 3 3 3 3 3 4 4 4 4 4 5 5 6 7 8 8 8 9 9 9 9 10 10 10 10 10 10 10
9 8 7 6 6 4 3 3 3 4 6 7 6 5 5 7 9 9 10 10 7 7 7 7 8 8 7 7 9 10 7 5 5 5 5 6 6 6 6 6 6 6 6 6 6 6 5 6 6 6 6 6 6 6 5 4 4 4 3 3 3 3 3 3 4 4 4 5 6 6 7 8 8 8 8 8 8 9 9 9 8 9 9 10 10
7 8 8 6 6 6 5 5 5 4 4 6 6 6 7 7 9 9 9 9 8 9 6 6 8 7 6 6 8 10 9 6 4 5 5 5 6 6 6 6 6 6 6 5 5 5 4 4 5 5 5 4 4 5 5 5 4 4 3 2 2 2 2 3 3 4 4 5 6 6 7 8 8 7 7 7 7 8 8 7 7 8 9 10 10
8 8 8 7 6 7 6 5 4 4 4 5 5 6 7 7 8 9 10 9 8 10 7 5 7 7 6 6 7 8 9 8 5 4 4 4 6 6 6 5 5 5 5 5 5 4 4 3 4 4 4 3 2 3 4 4 3 2 1 1 1 2 2 3 4 4 5 5 6 7 7 7 7 6 6 6 7 6 6 6 7 8 9 9 10
9 9 8 8 6 5 5 5 4 4 5 6 6 7 7 7 8 9 11 10 8 10 7 5 7 7 6 6 7 8 8 9 8 5 3 3 5 5 5 5 5 4 4 4 4 3 3 3 3 3 3 2 1 1 2 1 1 1 1 1 2 3 3 4 4 4 5 5 6 6 6 6 6 5 5 5 5 5 5 6 7 8 8 9 10
8 8 7 6 6 4 4 5 5 5 5 6 7 8 8 8 10 11 11 10 8 10 7 6 7 6 7 6 6 8 8 9 9 8 6 4 3 4 4 4 4 3 4 4 4 3 2 1 1 1 2 1 0 1 1 1 1 2 2 2 3 3 3 4 4 4 5 5 5 5 5 5 4 4 4 4 4 4 5 6 7 8 8 9 9
7 7 6 6 5 4 6 4 4 6 6 6 7 8 8 10 12 12 12 10 8 9 7 7 7 6 8 6 5 7 8 8 8 8 8 6 4 3 2 2 4 4 3 3 3 3 2 2 1 1 1 1 1 1 1 2 2 2 3 3 4 4 4 4 4 4 4 4 5 4 4 3 3 3 3 3 3 4 5 6 7 7 8 8 9
6 6 5 5 4 4 6 5 5 7 7 7 8 8 9 10 12 11 10 10 9 8 7 7 7 6 7 5 6 7 8 8 7 6 7 6 5 5 2 2 3 2 2 2 2 2 2 2 2 2 2 2 1 1 1 2 3 3 3 4 4 5 5 5 5 4 4 4 4 3 3 2 2 3 2 2 3 4 5 6 6 6 7 8 8
6 6 5 5 4 4 6 6 6 7 6 7 7 7 10 10 11 11 9 9 9 8 8 8 7 7 7 6 7 7 7 8 7 7 6 4 5 4 3 3 1 1 2 2 2 1 1 2 2 2 2 2 1 1 1 2 2 3 3 4 4 5 5 5 5 4 4 4 3 2 2 1 2 1 1 2 3 4 5 5 5 6 7 7 8
7 6 6 4 4 5 6 6 6 5 5 7 7 7 9 9 10 10 9 8 8 9 9 8 6 8 9 6 6 6 7 8 7 6 5 4 5 5 4 2 0 0 1 1 1 1 1 1 0 2 1 1 1 1 2 2 2 3 3 4 4 5 5 5 5 4 4 4 3 2 1 1 0 1 2 2 3 3 3 3 4 4 5 6 7
7 6 5 5 4 4 5 5 5 5 5 6 7 8 8 8 8 9 9 8 7 9 8 7 7 9 9 5 5 6 7 9 7 5 4 4 6 6 6 3 1 1 2 2 1 1 2 2 1 1 1 1 2 1 1 2 2 3 4 5 5 5 5 5 4 4 3 3 2 2 1 1 1 1 2 2 3 2 2 2 2 3 4 5 6
8 7 5 5 4 4 4 5 4 4 5 6 6 8 8 7 7 8 11 10 7 8 8 8 7 7 8 7 6 6 5 7 5 4 5 4 4 7 8 4 0 1 1 2 2 2 3 5 4 3 3 2 1 1 1 2 3 4 5 5 5 5 5 4 3 3 2 2 2 1 1 1 1 1 2 2 2 2 1 0 1 2 3 4 5
8 7 6 5 4 4 4 5 4 3 4 5 5 6 7 7 7 8 12 10 7 9 9 8 5 4 8 9 7 7 6 5 5 5 5 4 4 6 7 5 1 1 2 2 3 5 2 3 2 2 4 4 2 2 2 1 2 4 5 5 4 4 4 3 3 2 2 2 1 1 1 1 1 1 1 2 2 2 2 2 2 3 4 5 6
8 7 7 6 4 4 4 4 4 3 4 5 5 5 5 6 7 8 11 10 7 8 8 6 6 7 6 7 8 8 7 7 7 7 6 5 6 6 6 5 3 3 4 2 1 3 3 1 1 2 3 4 3 4 4 3 3 4 4 4 3 3 3 2 2 2 2 1 1 1 1 1 1 2 2 2 3 3 3 4 4 5 5 6 7
8 8 7 7 6 5 5 5 4 4 5 5 6 7 5 5 7 9 11 11 8 6 6 6 7 10 6 4 5 6 7 7 5 6 6 4 6 5 4 6 6 4 5 4 1 3 3 4 5 2 1 2 2 2 3 3 4 4 3 3 3 3 3 3 3 3 2 2 2 2 2 2 2 3 3 4 4 4 5 6 6 7 7 8 8
8 8 7 7 7 6 5 5 4 4 4 5 6 7 6 6 6 8 11 13 11 7 7 5 6 9 7 5 6 5 7 7 2 3 5 4 7 4 3 5 10 3 3 3 2 4 2 4 7 4 2 2 2 1 2 3 3 2 3 4 4 4 4 4 4 3 3 3 3 3 4 4 4 4 5 5 6 6 7 8 8 9 9 9 10
8 8 8 7 6 6 6 5 5 4 3 4 5 5 5 6 5 6 8 11 12 10 8 4 4 9 7 4 3 2 5 6 2 3 5 5 8 5 3 3 10 4 4 0 0 3 2 5 8 6 4 5 5 2 2 3 4 4 4 5 5 5 5 5 5 5 5 5 5 5 5 6 6 6 7 8 8 9 9 10 10 10 11 11 11
8 8 8 7 7 6 6 6 5 5 4 4 4 3 4 6 5 5 6 8 12 13 9 4 5 6 3 3 2 0 4 5 1 3 3 3 5 5 3 3 5 4 3 2 2 2 5 4 5 8 8 8 8 6 4 3 5 5 5 6 6 6 6 6 6 6 6 6 6 7 7 8 8 9 9 10 10 10 11 11 12 12 12 13 13
8 9 8 8 8 7 6 7 6 6 5 3 3 3 5 5 4 6 6 7 10 13 11 7 6 3 4 6 6 3 5 5 2 3 1 2 4 5 5 5 5 5 0 1 3 3 7 4 4 7 9 10 10 8 6 5 6 5 4 5 6 6 6 7 7 7 7 8 8 9 9 10 10 11 12 12 13 13 13 13 13 14 14 15 15
8 10 10 9 9 8 7 7 7 6 6 5 4 4 4 4 5 5 5 6 7 9 11 10 9 4 5 9 8 5 5 4 3 2 1 4 2 2 2 8 8 5 2 3 4 3 5 4 5 7 10 11 12 10 7 5 7 6 3 3 5 6 6 7 7 7 8 9 10 10 10 11 12 13 13 13 14 14 15 15 15 16 16 17 17
8 10 11 10 10 9 8 8 7 7 7 8 8 6 4 4 5 5 5 5 6 7 9 10 10 7 3 8 9 5 5 5 2 1 3 4 4 6 5 4 5 4 2 2 3 2 3 4 4 4 9 12 12 11 9 7 6 6 4 4 5 5 6 6 7 7 8 9 9 10 10 11 12 12 13 14 14 15 15 16 16 17 17 18 18
11 11 11 12 11 10 10 9 9 8 8 9 8 7 5 4 4 5 6 6 5 5 7 8 8 8 5 6 7 5 4 4 3 1 4 2 4 2 3 4 2 1 1 3 4 1 3 5 3 3 7 11 12 12 10 9 6 4 4 4 5 6 6 7 7 8 8 9 9 10 10 11 12 12 13 14 14 15 15 16 16 17 17 18 18
14 13 12 12 13 12 11 11 10 9 9 9 9 9 9 7 6 6 6 6 6 5 5 6 7 8 8 5 3 4 3 2 2 3 2 0 2 1 1 2 2 1 1 1 2 3 4 5 5 4 6 9 11 11 10 9 7 3 3 5 5 6 8 8 9 10 10 11 11 12 12 13 13 14 14 15 15 16 16 16 17 17 17 18 18
17 16 14 13 13 13 13 12 11 11 9 9 10 11 11 11 9 7 6 6 6 6 5 6 6 7 9 8 6 5 4 3 2 3 4 2 3 1 2 3 3 2 2 3 4 3 3 4 5 7 8 7 8 10 9 8 8 5 5 7 6 7 9 10 11 12 13 14 14 15 15 16 16 16 17 17 18 18 18 19 19 19 19 19 19
18 17 16 15 14 13 13 14 13 12 11 10 10 10 10 11 10 8 8 7 7 7 6 6 5 6 8 10 10 6 4 5 3 2 4 4 2 3 6 6 5 4 3 3 4 4 2 4 6 7 8 8 8 12 11 9 9 8 8 10 10 10 11 12 13 15 16 17 18 19 19 19 19 20 20 20 21 21 21 22 22 22 22 21 21
18 18 18 17 17 15 13 14 14 13 12 12 11 11 11 11 10 9 9 8 8 7 7 6 6 7 6 8 11 8 5 6 5 3 5 6 7 9 9 6 5 5 3 2 4 5 4 5 8 9 11 12 11 13 13 12 12 11 11 12 13 14 14 15 16 17 18 20 21 22 22 22 23 23 23 24 24 24 25 25 25 25 25 24 24
18 18 19 20 20 18 15 14 15 14 13 13 13 12 11 11 11 10 10 9 9 8 8 8 7 7 7 6 8 9 9 9 9 7 6 9 10 9 8 6 5 5 5 4 5 7 7 5 5 10 13 13 13 14 15 15 14 15 15 15 16 18 18 19 20 20 21 22 23 24 24 25 26 26 26 26 27 27 27 28 28 28 28 27 27
20 19 20 21 21 20 17 16 15 15 15 14 14 13 13 12 11 11 11 10 10 10 9 9 8 8 8 7 6 7 7 7 9 8 6 8 8 6 6 5 5 5 5 6 5 6 8 7 2 8 11 12 14 16 17 18 18 18 19 19 19 20 21 22 23 23 24 24 25 25 26 26 27 27 27 27 28 28 28 29 29 30 30 30 30
23 21 21 22 22 22 20 18 17 17 16 15 15 14 14 14 13 12 12 11 11 11 10 10 9 9 9 10 9 9 7 6 7 7 6 8 7 5 5 5 6 6 6 7 7 5 6 9 7 5 9 13 15 16 18 19 21 22 23 24 24 23 22 23 24 25 25 25 26 26 26 26 26 27 27 27 28 28 29 29 30 30 31 32 32
25 24 23 23 23 23 22 21 20 20 19 17 16 16 15 15 14 13 13 12 12 12 11 11 10 10 10 11 12 12 11 10 10 9 9 9 9 8 6 6 7 8 7 9 9 7 6 9 10 9 10 13 15 16 17 18 21 23 25 25 25 25 24 25 25 26 27 27 27 26 26 26 26 26 27 27 28 28 29 29 30 31 32 32 33
26 26 26 25 25 24 22 22 22 22 21 20 19 18 17 16 16 15 14 14 13 13 13 12 11 11 11 11 12 12 12 12 11 10 10 10 11 10 9 8 9 9 10 10 11 10 8 9 11 12 13 14 15 16 17 18 21 23 24 25 25 26 27 28 28 29 29 29 28 27 27 26 25 25 26 26 27 27 28 29 30 30 31 33 34
27 27 28 28 28 26 24 23 23 23 22 21 20 20 19 18 17 16 16 16 14 14 14 14 13 12 12 13 12 12 12 12 11 11 10 9 9 11 11 10 10 10 11 11 12 14 14 12 12 13 13 14 16 17 18 21 22 24 26 27 27 28 29 29 30 30 30 30 29 28 28 28 27 26 26 26 26 26 26 27 28 29 30 32 33
28 28 29 30 30 28 26 24 24 24 23 22 21 21 20 19 18 18 18 18 16 15 15 15 14 14 14 14 13 12 13 13 12 12 11 10 10 11 11 12 12 11 11 12 14 16 18 17 15 15 16 17 19 19 20 22 23 24 26 26 26 27 28 28 28 28 27 27 26 26 27 27 27 27 28 28 28 27 27 27 28 28 29 29 30
29 30 30 30 30 29 28 27 26 25 25 24 22 22 21 20 20 19 19 19 18 17 16 15 15 15 15 15 15 14 14 15 14 14 13 13 13 13 14 14 14 14 14 15 16 17 19 20 18 18 19 20 21 21 21 22 22 22 23 23 23 24 24 23 23 23 22 20 20 21 23 26 28 29 29 29 28 28 27 27 27 27 26 26 27
30 30 31 31 31 30 29 29 28 27 27 26 25 23 22 21 20 21 21 20 20 19 17 17 16 16 16 16 16 16 16 17 17 16 16 15 14 14 15 15 15 16 16 17 17 17 19 21 21 21 21 22 23 23 23 22 23 23 24 24 23 22 22 21 21 21 20 18 18 22 26 29 31 30 28 28 29 28 27 28 27 26 24 22 22
31 30 32 32 32 31 31 30 30 29 28 29 28 26 24 23 21 21 22 22 22 21 19 18 17 17 17 17 17 17 17 18 18 17 17 16 15 15 16 15 15 15 16 17 18 18 20 21 22 23 23 23 24 24 23 22 23 24 25 25 23 22 22 22 23 24 22 20 22 26 28 30 29 28 29 32 32 29 28 27 25 23 21 18 17
33 31 32 33 32 32 32 32 31 30 30 30 30 28 26 25 24 23 23 23 23 23 22 20 19 19 18 18 18 18 18 18 18 18 18 17 16 16 16 15 15 15 16 17 18 19 20 22 23 25 25 25 25 25 24 22 23 24 23 22 22 23 24 25 25 25 25 25 26 28 30 30 28 28 30 33 32 29 25 23 21 22 22 21 20
35 33 32 32 33 32 33 33 33 32 32 32 31 30 28 27 26 25 24 24 23 23 23 22 21 20 19 19 19 19 19 19 19 19 19 18 17 17 17 16 16 17 17 17 18 19 20 22 24 26 26 26 26 26 25 24 23 22 20 19 22 25 25 24 23 25 27 28 28 30 32 32 30 31 31 31 28 24 21 20 21 23 25 25 25
35 34 32 32 32 33 33 33 33 33 33 34 34 33 30 29 28 28 27 26 25 24 23 22 22 21 20 20 19 19 19 19 19 19 19 19 19 19 19 18 17 17 17 17 18 19 21 23 25 26 27 28 28 26 25 22 21 20 19 20 22 23 22 21 23 26 28 27 29 31 32 32 32 33 30 27 23 19 18 19 22 24 27 28 28
35 35 33 32 32 32 33 33 34 33 34 34 35 34 32 31 30 29 29 28 26 26 25 24 23 22 21 20 20 20 20 20 20 19 19 19 19 19 19 18 18 18 19 19 20 21 22 24 26 26 28 30 29 26 23 21 20 20 19 20 21 23 24 26 28 27 26 27 31 33 32 32 32 31 27 23 20 19 20 21 23 25 27 29 30
35 35 35 34 32 32 33 33 34 34 34 34 35 34 33 32 31 30 30 30 28 26 26 25 24 23 22 21 20 21 21 21 21 21 21 22 22 20 19 19 19 20 21 22 23 24 24 25 27 27 28 30 30 27 25 24 22 20 20 21 24 27 28 29 30 28 27 29 33 35 33 30 27 26 24 21 20 20 22 24 25 25 27 29 28
37 36 36 37 35 32 32 33 33 33 33 33 34 34 34 32 31 31 31 31 30 29 27 27 27 26 24 23 22 22 22 22 23 24 25 25 25 22 20 20 20 21 22 23 24 25 25 26 28 29 30 31 31 30 29 27 25 24 25 27 28 28 28 28 29 30 29 30 33 34 31 26 22 23 22 20 21 22 23 24 24 25 26 27 26
38 37 37 37 38 35 33 32 32 32 31 32 33 33 33 32 30 30 30 31 31 31 29 29 28 28 27 26 25 24 23 22 22 23 25 25 24 22 21 21 21 22 23 23 24 25 26 27 29 30 30 30 30 30 28 26 25 25 26 27 26 26 26 28 30 30 29 28 29 30 28 24 22 22 22 21 23 23 23 23 23 23 23 22 22
38 38 37 37 38 38 36 33 32 32 30 30 32 32 32 32 30 29 30 30 31 31 30 30 28 28 28 28 27 26 25 24 23 23 24 24 24 23 22 23 23 23 24 24 24 25 26 28 29 29 28 27 27 26 22 19 20 21 21 22 23 25 27 29 29 29 27 25 24 25 27 26 23 23 23 22 22 23 23 24 23 20 20 20 22
40 40 38 37 38 39 38 36 33 32 31 30 31 31 32 31 29 28 29 29 30 29 29 29 28 28 28 27 27 27 26 25 25 25 25 26 26 26 25 25 25 25 25 26 26 26 26 27 28 28 27 25 23 20 17 16 18 19 20 22 25 27 29 29 29 27 24 22 20 21 25 25 22 22 22 21 23 26 27 24 19 17 19 22 24
39 40 39 38 37 38 39 38 35 33 32 31 31 31 31 30 29 28 28 28 29 29 28 28 28 28 28 28 28 28 26 26 25 25 25 26 27 27 27 27 27 27 27 27 27 27 28 28 29 29 26 22 19 17 16 17 18 20 21 24 27 28 29 30 29 27 25 22 18 17 21 23 21 22 24 25 28 30 27 21 17 18 22 25 24
37 39 40 39 37 37 38 39 38 35 33 32 32 31 31 30 29 29 28 28 29 31 32 31 30 30 30 31 30 30 28 27 26 25 25 26 26 27 28 28 28 29 29 28 28 29 30 30 30 29 25 20 17 17 18 17 18 21 23 26 28 28 28 29 28 26 24 21 17 14 17 20 21 24 29 32 31 29 24 20 20 23 26 25 23
36 36 39 39 37 36 37 38 39 38 35 34 33 33 32 32 31 30 29 29 30 31 33 35 35 34 34 34 33 32 31 29 28 27 26 27 27 28 28 29 29 30 30 29 29 29 30 29 29 26 23 20 18 18 19 19 20 22 23 24 23 23 23 23 23 23 22 19 16 14 17 20 23 27 32 34 32 26 22 22 26 28 28 25 22
36 34 35 37 36 35 35 36 37 38 37 36 35 35 34 34 33 32 31 30 30 31 32 34 36 37 37 36 35 34 32 31 30 30 29 29 29 29 29 30 31 31 31 29 29 29 28 27 26 26 25 23 21 21 21 21 20 20 20 18 16 17 19 20 20 21 20 17 14 16 19 23 26 28 29 29 30 28 25 26 29 30 27 25 25
Wind_Direction
125 120 109 110 117 117 103 101 107 108 119 129 126 125 128 139 138 127 122 124 133 122 101 91 99 117 128 129 131 129 122 117 116 116 121 123 122 125 124 122 119 116 113 107 106 105 109 119 124 126 122 121 120 116 117 116 117 114 103 92 85 75 56 49 47 45 46 40 35 32 26 19 14 10 7 4 6 8 10 12 14 18 20 22 24
133 122 120 130 127 110 97 93 99 107 114 121 128 128 125 138 141 128 119 119 119 110 109 110 106 108 115 121 128 133 125 117 110 105 117 123 122 125 124 124 122 118 116 110 109 105 103 107 111 119 121 121 122 121 122 122 122 115 97 91 85 64 51 49 47 46 45 38 28 20 13 7 6 5 3 5 8 11 14 17 19 22 25 26 26
137 134 143 149 136 117 112 116 117 122 129 137 137 125 128 140 146 148 134 125 131 123 115 115 111 111 111 121 132 139 137 118 110 99 106 116 118 125 126 126 126 122 121 117 114 112 107 106 106 110 116 120 123 124 124 122 118 106 95 87 75 64 58 53 47 44 39 30 17 7 2 0 2 3 2 6 11 13 19 22 23 26 29 28 26
149 152 159 157 149 143 154 159 164 149 137 143 141 129 138 147 149 153 138 132 142 126 113 118 117 117 118 125 128 131 138 122 110 102 96 110 118 120 123 125 126 121 120 119 117 115 109 105 106 106 110 116 122 125 124 121 117 108 102 90 79 69 57 46 35 25 18 14 5 358 356 356 359 3 2 7 15 18 22 26 29 31 30 28 26
157 159 159 158 146 136 150 158 153 150 144 145 138 134 142 148 149 151 146 140 133 117 107 107 107 116 123 120 121 126 135 132 115 107 94 101 114 113 118 122 121 118 117 120 119 117 115 109 106 106 109 116 122 125 124 121 118 109 100 92 76 51 30 19 10 2 357 357 353 351 352 354 358 2 5 12 21 24 27 32 35 35 31 29 28
160 155 151 153 139 130 145 151 139 137 151 143 128 134 143 145 148 153 150 140 131 123 117 110 109 120 124 118 119 119 122 124 118 111 95 97 109 104 109 120 118 114 112 115 117 120 123 121 114 113 111 113 116 125 132 130 123 112 91 48 5 357 352 346 346 344 345 347 345 345 349 354 359 5 14 22 28 32 38 43 43 39 35 33 31
153 145 144 147 136 127 131 133 132 127 137 133 127 143 146 140 140 141 141 137 133 127 124 131 123 118 123 121 119 117 121 125 124 121 106 100 114 108 102 112 111 108 109 104 109 122 132 133 121 117 112 104 118 141 146 134 104 76 18 347 336 332 330 331 334 335 337 339 337 342 351 358 5 15 27 29 33 45 54 56 51 46 42 39 36
143 134 139 136 128 123 115 117 134 130 124 128 132 139 139 135 131 127 132 135 129 124 126 129 120 108 112 114 113 122 124 123 126 133 130 112 106 106 98 105 113 109 105 99 98 101 108 124 113 106 99 76 36 288 300 327 348 353 342 333 328 324 325 326 327 330 332 331 332 345 358 7 18 28 33 32 46 66 71 67 58 54 50 45 42
137 134 135 122 119 122 120 125 142 128 115 122 134 139 140 133 132 133 134 133 124 125 132 128 122 109 105 113 122 124 119 118 131 135 132 135 126 116 109 108 121 115 94 87 97 92 71 66 68 72 71 47 11 346 338 335 334 333 327 320 318 318 318 318 319 324 327 328 334 348 3 15 28 30 35 46 74 87 83 74 66 63 58 51 46
140 146 139 123 133 136 128 132 133 121 116 125 134 138 137 134 140 141 131 128 127 130 141 133 123 119 118 125 125 125 127 125 124 100 98 114 122 132 140 78 102 110 80 68 69 71 65 53 52 60 54 43 19 348 338 327 326 327 320 315 313 313 313 309 310 313 316 326 333 344 360 18 29 29 44 77 105 100 90 81 74 70 63 54 47
158 161 149 135 143 139 126 125 122 119 118 122 125 125 126 134 144 142 130 128 134 142 148 135 127 128 125 121 121 127 129 120 109 98 99 109 119 132 112 70 53 37 58 76 49 37 76 67 59 63 46 31 28 2 338 312 312 323 321 319 315 312 310 304 302 300 302 313 316 325 350 8 23 38 85 113 121 111 96 88 80 74 64 52 44
167 170 161 149 128 117 123 120 114 113 105 107 112 113 116 130 140 141 138 131 134 143 139 132 140 133 120 122 136 135 125 118 112 115 128 120 111 130 129 101 10 54 102 99 49 30 105 112 93 60 26 329 2 18 1 346 328 337 333 328 324 313 309 305 299 296 294 299 298 298 316 321 25 96 138 136 132 123 107 96 84 72 59 47 38
169 173 157 145 118 106 121 115 105 106 100 99 107 115 119 129 133 133 132 126 129 139 140 148 157 138 128 134 134 128 120 117 121 123 123 100 89 113 140 148 358 122 170 170 181 262 33 24 328 359 14 329 339 339 348 354 340 341 341 332 331 322 313 309 301 297 292 288 283 276 269 240 182 145 153 150 149 148 127 105 80 60 46 36 26
167 169 152 146 140 125 115 107 107 107 108 104 108 124 125 121 126 129 125 124 138 150 147 143 135 123 135 147 133 127 121 115 127 132 124 121 76 84 115 139 106 22 95 130 138 100 24 353 346 350 357 3 344 313 341 351 341 339 346 340 336 331 319 314 308 297 293 280 269 259 248 225 186 167 170 172 177 192 202 256 14 18 14 12 6
169 168 159 163 155 128 110 111 124 125 119 113 101 117 124 122 133 142 133 131 155 164 148 132 130 141 157 168 161 143 135 134 148 150 142 147 123 97 115 144 174 22 47 43 67 105 149 282 301 305 330 1 16 24 19 6 3 354 353 348 340 339 326 322 317 302 302 292 277 262 244 235 211 200 201 204 220 237 264 297 317 334 338 343 345
178 174 171 177 171 146 137 136 146 148 128 111 107 119 133 133 136 142 138 134 155 164 146 138 155 165 182 203 187 161 147 150 153 160 164 153 144 131 132 178 229 43 88 111 40 116 159 225 2 297 324 5 9 13 26 32 21 5 358 359 354 357 350 342 346 334 331 321 312 299 272 272 258 253 247 243 254 260 276 294 304 315 319 325 329
182 182 180 183 180 172 161 156 162 153 130 119 131 140 138 131 130 137 140 140 147 156 147 152 169 172 191 208 165 138 129 141 155 169 178 164 154 140 117 195 234 20 90 155 53 55 85 38 11 358 345 6 4 1 5 1 360 350 345 5 15 13 10 3 3 358 348 340 329 317 297 294 287 283 280 275 278 279 284 292 296 304 309 312 317
183 185 185 185 183 183 174 166 173 159 141 139 148 149 139 132 133 138 146 148 147 149 150 167 196 176 155 117 102 84 109 129 143 160 166 154 157 168 70 182 222 303 63 159 37 27 43 355 345 11 58 3 6 331 296 321 340 347 339 357 11 8 10 8 3 357 344 334 323 316 307 302 299 295 295 294 295 294 294 295 296 300 303 307 310
188 189 188 191 188 186 185 180 175 161 155 157 147 142 141 142 144 143 151 154 148 148 151 156 167 146 123 103 84 34 114 119 78 114 141 147 158 182 60 133 222 255 25 142 61 1 338 338 331 345 13 4 2 340 287 306 341 356 346 347 353 352 355 356 353 348 338 328 317 312 308 305 304 301 301 300 300 300 299 299 300 301 303 305 307
192 196 192 196 198 192 191 186 179 173 175 172 145 129 148 154 154 149 153 156 147 145 148 135 132 136 151 166 133 279 132 112 106 137 135 148 150 173 120 76 205 190 17 283 200 309 315 332 326 325 334 343 350 347 332 333 348 349 336 339 343 342 344 341 340 336 328 323 315 310 307 304 304 302 302 302 301 302 302 302 302 303 304 304 305
199 204 199 200 205 202 196 188 185 187 178 168 156 153 165 163 153 153 155 154 147 147 156 155 138 161 209 166 125 127 132 92 101 155 182 192 144 157 155 123 157 170 98 231 172 318 319 342 352 322 316 326 338 346 345 328 337 351 336 334 339 337 337 333 329 325 320 318 314 312 309 305 303 301 300 301 301 302 301 302 302 302 303 302 303
206 208 206 202 207 206 202 195 189 191 177 168 192 203 185 171 164 164 157 152 150 154 166 161 142 149 204 177 150 143 154 124 107 131 167 194 198 359 119 141 148 144 118 175 205 273 299 322 336 307 299 315 328 338 351 328 325 347 352 345 344 339 337 332 328 323 320 319 315 312 308 305 304 302 301 300 300 300 299 300 300 300 300 301 301
222 217 211 206 209 209 207 202 194 194 186 179 192 208 206 192 177 173 169 163 157 158 165 161 147 139 167 180 166 152 172 162 130 106 149 185 292 359 48 101 123 119 138 239 259 235 237 294 326 272 277 299 312 321 339 340 329 334 340 351 347 337 334 329 326 324 320 318 314 311 309 306 304 303 302 302 300 300 299 299 299 299 299 300 301
229 227 220 214 212 209 207 205 197 196 198 191 188 190 195 217 208 185 183 180 171 167 164 159 158 153 147 163 157 140 155 146 119 162 157 174 290 335 49 11 29 105 300 325 340 335 243 278 289 237 260 279 290 302 318 329 329 321 322 336 333 327 328 322 320 318 315 313 310 308 307 305 305 304 303 303 302 301 300 300 299 298 299 299 299
225 228 227 223 218 211 207 208 201 200 205 197 190 190 185 200 226 210 192 189 180 181 173 161 168 165 156 163 163 157 183 163 143 198 200 70 336 247 262 322 338 328 293 274 276 260 250 262 259 246 258 265 275 290 307 317 318 310 319 326 322 317 316 315 316 314 311 310 308 307 305 303 302 301 301 301 301 300 299 299 299 298 299 299 299
228 228 226 225 226 216 207 209 207 204 209 203 199 203 192 193 214 214 200 203 189 185 185 175 181 173 163 177 195 191 211 209 153 187 229 277 2 17 233 240 248 275 277 277 292 279 238 247 240 231 248 270 296 309 310 308 308 318 326 325 323 315 311 313 313 312 312 311 309 308 306 304 303 302 301 301 300 299 299 298 297 296 297 297 297
233 228 223 221 228 226 210 207 211 207 209 210 206 210 206 201 211 210 204 209 200 194 193 182 194 197 177 182 187 183 207 209 185 197 229 251 276 222 231 237 235 245 257 272 294 302 258 245 248 245 260 285 314 319 314 306 308 318 316 314 319 317 312 310 310 310 310 309 308 308 307 306 305 304 303 302 301 301 300 298 297 296 295 295 295
236 228 220 218 225 232 219 207 212 213 210 213 212 210 210 210 213 212 208 212 209 205 204 194 198 212 209 196 185 177 185 198 196 215 232 234 232 232 244 251 229 230 243 205 238 265 246 237 251 256 274 294 305 308 309 305 307 312 307 307 312 311 309 308 307 306 305 304 304 304 305 305 305 304 303 303 302 302 300 298 297 295 294 294 293
230 226 220 217 222 231 230 214 212 217 214 214 216 214 211 212 213 211 211 216 217 213 212 207 197 206 223 222 201 188 186 197 202 200 215 231 240 249 251 248 229 225 235 223 227 239 219 215 268 267 274 294 301 301 304 302 302 303 301 302 303 302 303 303 303 303 303 304 304 304 305 305 305 305 304 303 302 301 300 298 297 296 294 293 292
218 221 219 217 221 227 229 221 215 218 219 216 216 217 215 214 213 212 212 216 221 218 217 215 204 203 216 227 244 236 209 207 209 203 227 243 243 253 251 245 253 252 249 249 248 236 206 187 256 289 287 294 297 301 305 303 301 300 299 301 303 304 305 304 305 306 307 308 308 308 307 306 305 304 303 302 301 299 298 298 297 295 294 293 292
213 213 217 218 220 224 225 223 219 219 220 220 219 219 219 218 214 214 214 215 220 221 219 222 218 212 212 210 225 241 237 231 219 209 245 266 256 252 254 253 263 269 273 275 274 254 215 210 220 256 286 294 298 304 306 304 303 301 301 303 307 310 310 308 308 308 308 309 309 308 307 306 304 302 300 299 298 298 297 296 295 294 293 292 291
213 209 216 220 220 222 222 221 221 221 219 218 220 221 221 222 220 217 219 218 220 221 220 223 226 224 223 217 216 224 227 229 226 209 214 246 261 265 265 265 270 275 278 279 277 263 238 244 248 246 262 279 289 293 293 294 295 298 302 305 308 310 309 308 308 307 306 306 306 306 307 306 305 303 302 301 299 298 297 295 294 293 292 291 290
216 208 213 218 220 222 221 220 222 224 223 220 219 221 222 223 224 222 223 224 220 221 224 225 225 227 232 233 230 231 231 232 236 228 216 228 252 267 272 266 267 273 275 278 284 283 273 269 272 271 272 277 283 286 288 289 291 296 302 305 307 307 306 307 307 306 307 307 307 307 306 306 306 306 306 305 304 303 301 300 298 296 294 293 292
218 211 210 214 218 221 220 220 221 222 225 224 220 222 223 223 225 224 224 227 225 221 225 227 227 229 235 242 241 238 241 242 242 243 237 229 243 264 278 281 280 279 276 275 282 289 294 297 296 295 297 298 299 302 303 302 302 303 303 304 304 303 303 304 306 308 310 310 310 310 308 309 309 310 310 309 308 308 307 305 303 301 300 297 295
215 212 211 213 217 219 220 219 218 218 223 226 222 223 226 224 225 227 226 230 233 228 226 228 231 233 237 244 246 240 243 248 247 248 245 233 230 244 259 271 280 281 276 276 279 283 291 299 303 304 305 306 304 305 303 300 301 301 300 301 300 298 299 300 301 303 303 304 307 309 310 312 313 312 310 307 306 306 306 305 304 304 303 301 299
212 213 212 213 215 218 219 218 217 216 218 225 226 224 228 227 224 228 230 234 238 237 232 232 233 235 237 242 244 242 243 246 247 248 249 242 234 233 238 244 253 261 264 267 271 276 282 290 299 304 306 306 306 307 307 306 305 306 307 308 304 303 306 307 307 309 310 311 313 315 317 319 317 312 306 305 307 308 309 308 307 307 305 303 300
210 212 213 213 214 216 217 217 217 217 217 223 227 225 226 229 227 227 230 234 239 241 240 239 239 239 241 242 241 240 242 244 246 247 248 249 245 241 242 244 248 257 264 268 272 275 279 286 295 302 304 305 308 312 314 315 316 317 317 317 315 315 318 322 325 327 328 325 322 323 325 325 324 320 318 319 319 318 319 320 321 321 318 312 307
209 211 213 214 213 215 217 217 218 219 218 220 226 226 226 229 232 230 230 232 236 241 244 244 243 243 244 245 242 240 241 242 243 246 247 248 248 246 248 250 252 256 262 270 276 280 284 289 295 300 303 305 309 313 316 316 314 313 315 316 317 318 320 323 325 326 327 324 323 325 325 325 325 323 322 323 324 324 324 325 330 333 332 330 327
207 208 212 214 215 216 219 218 217 218 219 219 224 227 226 227 233 235 235 235 236 240 244 247 247 246 247 249 246 242 242 243 243 244 246 247 248 251 253 255 257 258 260 264 270 278 285 290 294 298 302 305 307 309 310 308 305 307 310 311 313 317 318 318 319 319 319 318 318 321 322 321 320 317 316 319 323 324 322 323 327 331 335 336 334
206 206 210 213 215 216 219 220 217 216 219 220 222 227 227 225 228 234 236 237 237 239 242 245 247 247 247 250 251 247 244 245 245 245 246 247 249 254 258 259 260 262 263 266 270 274 280 286 291 296 299 301 302 304 304 304 305 309 313 311 312 315 316 313 311 311 312 314 315 318 319 317 315 317 320 323 326 327 324 323 324 329 336 339 338
206 205 207 212 215 214 217 221 219 217 219 220 221 226 229 226 225 229 234 236 237 238 241 243 244 244 244 244 248 251 249 248 249 249 250 250 251 253 255 258 260 261 264 267 270 274 278 283 289 294 297 299 301 302 303 305 306 309 312 310 307 307 306 302 301 303 308 313 315 315 317 317 317 321 325 329 335 338 334 333 333 334 336 338 339
207 204 204 209 214 215 216 219 220 218 218 222 225 229 232 232 228 227 231 235 237 237 239 243 244 244 244 241 240 243 248 251 254 256 257 257 257 255 253 253 256 261 266 269 272 277 280 283 289 293 295 297 300 301 300 300 301 302 303 299 294 293 293 294 296 301 310 316 313 311 316 320 319 321 328 333 340 344 343 342 340 335 334 336 339
211 207 204 206 211 216 217 219 222 222 221 223 230 234 235 236 234 230 230 235 238 238 237 239 241 242 243 244 244 242 241 244 248 252 255 258 261 260 256 254 256 262 268 271 275 277 279 281 286 288 289 293 297 296 293 293 294 292 289 286 287 290 293 295 299 306 316 317 310 307 313 322 323 323 328 334 340 344 342 341 339 334 333 334 335
213 210 207 205 208 213 216 217 221 226 226 225 230 236 236 236 236 235 233 233 236 239 239 237 238 241 241 242 244 245 243 241 242 246 249 255 261 263 259 257 258 262 266 270 274 277 278 280 282 283 285 290 293 292 291 291 290 287 285 286 288 291 295 299 302 309 316 316 310 307 313 325 329 324 326 334 341 342 340 338 334 327 323 325 326
213 212 210 208 207 210 215 217 218 224 226 225 228 234 237 238 237 236 235 234 234 237 241 242 241 242 245 246 245 245 245 243 243 247 252 257 262 262 259 258 258 260 264 269 272 276 279 280 281 284 288 290 291 294 297 296 293 291 290 290 292 294 298 302 304 308 314 314 311 309 315 328 333 325 328 338 340 338 334 327 322 320 324 326 324
212 213 212 211 209 209 213 218 220 221 223 225 228 232 236 239 238 236 236 235 234 235 239 244 246 245 247 250 251 250 247 244 242 245 251 258 263 263 261 261 261 263 266 270 273 277 280 281 283 288 293 294 294 298 302 299 294 293 292 293 295 297 301 305 307 310 313 314 315 314 317 329 335 328 329 334 330 326 323 320 323 330 333 328 321
211 214 213 213 213 212 212 216 221 222 222 224 228 231 235 238 240 238 236 234 232 233 236 241 245 249 249 251 253 254 253 250 245 243 245 252 260 265 267 266 266 268 270 272 276 279 282 285 287 292 296 297 298 298 298 296 295 296 296 295 295 298 303 307 311 314 315 318 323 317 314 325 334 327 324 324 319 319 323 328 333 332 324 320 320
210 214 214 214 214 215 214 214 218 222 223 224 227 231 236 240 240 239 237 235 231 231 232 235 239 244 248 251 253 254 255 255 253 249 247 250 255 262 267 270 273 274 275 277 282 285 289 292 293 295 298 300 300 295 291 293 296 296 295 293 295 301 305 306 309 311 312 318 329 322 314 322 328 320 315 315 316 321 329 336 333 323 321 325 329
206 211 214 214 214 215 216 216 217 220 223 224 226 229 235 240 241 239 237 236 234 233 232 233 235 237 241 247 252 254 256 258 258 257 255 254 255 259 264 268 272 275 279 282 286 289 291 293 294 295 298 299 296 289 287 288 287 286 288 292 299 305 304 301 303 306 309 320 332 326 313 314 314 310 312 315 318 325 334 337 330 327 331 337 341
203 207 212 214 215 216 219 220 220 220 222 225 227 228 232 237 239 239 238 237 236 236 235 235 236 236 239 245 249 253 256 259 261 262 261 259 259 261 263 266 269 272 277 281 283 285 286 287 289 290 290 289 286 283 281 280 280 283 290 298 307 310 305 303 306 307 311 321 325 315 307 306 307 311 315 318 322 330 336 334 333 336 341 344 345
204 205 211 214 215 217 219 222 225 225 224 225 228 229 231 233 235 238 238 237 237 238 238 238 238 239 241 246 249 252 256 259 260 261 263 263 263 265 266 266 268 272 276 280 281 281 280 280 279 278 278 277 275 274 276 280 285 290 295 301 311 314 312 313 311 307 311 318 314 308 307 308 310 314 318 320 324 332 338 336 336 341 345 342 339
Height
1588 1589 1589 1589 1590 1591 1591 1592 1593 1593 1593 1593 1594 1594 1595 1595 1596 1596 1597 1598 1598 1598 1600 1600 1601 1600 1600 1601 1601 1601 1602 1602 1602 1602 1602 1602 1602 1603 1603 1603 1603 1603 1603 1603 1603 1603 1603 1603 1604 1604 1604 1604 1605 1605 1605 1605 1605 1605 1605 1605 1605 1605 1605 1604 1604 1604 1603 1603 1603 1603 1602 1602 1601 1601 1600 1599 1599 1598 1597 1597 1596 1595 1594 1593 1592
1589 1589 1589 1590 1590 1591 1591 1592 1593 1593 1594 1594 1594 1594 1595 1596 1596 1596 1597 1599 1599 1600 1601 1602 1602 1602 1601 1602 1602 1602 1602 1602 1602 1602 1602 1602 1603 1603 1603 1603 1603 1603 1603 1603 1604 1604 1604 1604 1604 1604 1604 1605 1605 1605 1605 1606 1606 1606 1606 1605 1605 1605 1605 1605 1604 1604 1604 1603 1603 1603 1602 1602 1601 1601 1600 1599 1599 1598 1597 1597 1596 1595 1594 1593 1592
1589 1590 1590 1590 1591 1591 1591 1592 1593 1594 1594 1594 1594 1594 1595 1596 1596 1597 1598 1599 1600 1600 1601 1602 1602 1602 1602 1602 1603 1603 1602 1602 1602 1602 1602 1603 1603 1603 1603 1603 1603 1604 1604 1604 1604 1604 1604 1604 1604 1604 1605 1605 1605 1605 1606 1606 1606 1606 1606 1606 1605 1605 1605 1605 1605 1604 1604 1604 1603 1603 1602 1602 1601 1601 1600 1600 1599 1598 1598 1597 1596 1595 1594 1594 1593
1589 1590 1591 1591 1592 1592 1592 1593 1593 1594 1594 1594 1595 1595 1595 1596 1597 1598 1599 1599 1599 1600 1601 1602 1602 1603 1603 1603 1603 1603 1603 1602 1602 1603 1603 1603 1603 1603 1603 1603 1603 1603 1604 1604 1604 1604 1605 1605 1605 1605 1605 1605 1605 1605 1606 1606 1606 1606 1606 1606 1606 1606 1605 1605 1605 1604 1604 1604 1603 1603 1603 1602 1601 1601 1600 1600 1599 1598 1598 1597 1596 1595 1595 1594 1593
1589 1590 1591 1591 1592 1592 1592 1593 1593 1594 1594 1594 1595 1595 1595 1596 1597 1598 1599 1599 1599 1600 1601 1602 1603 1603 1604 1603 1603 1603 1603 1603 1603 1603 1603 1603 1603 1603 1603 1603 1603 1603 1604 1604 1604 1605 1605 1605 1605 1605 1606 1606 1606 1606 1606 1606 1606 1606 1606 1606 1606 1606 1605 1605 1605 1604 1604 1604 1603 1603 1603 1602 1601 1601 1600 1599 1599 1598 1598 1597 1597 1596 1595 1595 1594
1589 1590 1591 1591 1592 1592 1593 1593 1593 1594 1594 1594 1594 1595 1595 1596 1596 1598 1599 1600 1600 1600 1602 1603 1603 1604 1604 1603 1603 1603 1603 1603 1603 1603 1603 1603 1603 1603 1603 1603 1603 1603 1604 1604 1604 1605 1605 1605 1605 1606 1606 1606 1606 1606 1606 1606 1606 1606 1606 1606 1606 1606 1605 1605 1605 1604 1604 1604 1603 1603 1602 1602 1601 1601 1600 1599 1599 1598 1598 1598 1597 1597 1596 1595 1594
1589 1590 1591 1591 1592 1592 1593 1594 1594 1594 1594 1594 1594 1595 1595 1596 1596 1597 1598 1599 1600 1601 1602 1603 1603 1604 1604 1604 1604 1604 1604 1605 1604 1604 1603 1603 1603 1603 1603 1603 1603 1604 1604 1604 1604 1605 1605 1605 1606 1606 1606 1606 1606 1606 1606 1606 1606 1606 1606 1606 1606 1606 1605 1605 1604 1604 1604 1603 1603 1603 1602 1601 1601 1600 1600 1599 1599 1599 1598 1598 1598 1597 1596 1596 1595
1589 1590 1591 1592 1592 1593 1593 1594 1594 1594 1594 1594 1594 1595 1595 1596 1596 1597 1598 1599 1600 1601 1602 1602 1603 1604 1603 1604 1604 1604 1604 1605 1605 1605 1604 1603 1603 1603 1603 1604 1604 1604 1604 1604 1605 1605 1605 1605 1606 1606 1606 1606 1606 1606 1606 1606 1606 1606 1606 1606 1605 1605 1605 1604 1604 1604 1603 1603 1603 1602 1602 1601 1600 1600 1600 1599 1599 1599 1599 1598 1598 1598 1597 1596 1595
1589 1590 1591 1592 1593 1594 1594 1594 1594 1594 1594 1594 1594 1595 1595 1595 1596 1597 1597 1598 1599 1601 1602 1603 1603 1604 1604 1604 1604 1604 1604 1605 1605 1605 1605 1604 1604 1603 1603 1604 1604 1604 1605 1605 1605 1605 1605 1606 1606 1606 1606 1606 1606 1606 1606 1606 1606 1606 1606 1605 1605 1605 1604 1604 1604 1603 1603 1602 1602 1601 1601 1600 1600 1600 1600 1600 1600 1599 1599 1599 1598 1598 1597 1597 1596
1589 1590 1592 1592 1592 1593 1593 1593 1594 1594 1594 1595 1595 1595 1595 1595 1596 1596 1597 1598 1599 1601 1602 1603 1603 1604 1604 1604 1604 1604 1604 1604 1605 1605 1605 1605 1605 1604 1604 1604 1604 1604 1605 1605 1605 1605 1605 1606 1606 1606 1606 1606 1606 1606 1606 1606 1605 1605 1605 1605 1604 1604 1604 1603 1603 1603 1602 1602 1601 1601 1600 1600 1600 1600 1600 1600 1600 1599 1599 1599 1598 1598 1598 1597 1596
1589 1590 1592 1592 1592 1592 1592 1593 1594 1594 1594 1595 1595 1595 1595 1595 1596 1596 1597 1598 1599 1601 1602 1603 1604 1604 1604 1604 1604 1604 1604 1604 1605 1605 1605 1605 1605 1605 1605 1605 1605 1605 1605 1605 1605 1605 1606 1606 1606 1606 1606 1606 1606 1605 1605 1605 1605 1605 1605 1604 1604 1603 1603 1602 1602 1602 1601 1601 1601 1600 1600 1600 1600 1600 1600 1600 1599 1599 1599 1599 1599 1598 1598 1597 1597
1590 1591 1592 1592 1591 1592 1592 1593 1594 1595 1595 1595 1595 1595 1596 1596 1596 1596 1597 1599 1600 1600 1602 1602 1603 1603 1604 1604 1604 1604 1604 1604 1605 1606 1606 1606 1606 1606 1606 1606 1605 1605 1605 1605 1605 1605 1605 1606 1605 1605 1605 1605 1605 1605 1605 1605 1605 1604 1604 1604 1603 1603 1602 1602 1601 1601 1601 1600 1600 1600 1600 1600 1600 1600 1599 1599 1599 1599 1599 1599 1599 1598 1598 1597 1597
1591 1591 1592 1592 1592 1592 1593 1593 1594 1595 1595 1596 1596 1596 1596 1596 1596 1597 1598 1599 1600 1601 1601 1602 1603 1603 1604 1604 1604 1604 1604 1604 1605 1606 1606 1606 1606 1606 1607 1607 1606 1606 1606 1606 1605 1605 1605 1605 1605 1605 1605 1605 1605 1605 1605 1604 1604 1604 1604 1603 1602 1602 1602 1601 1601 1600 1600 1600 1600 1600 1600 1600 1600 1600 1599 1599 1599 1599 1599 1599 1599 1598 1598 1597 1597
1591 1591 1592 1592 1592 1593 1593 1593 1593 1595 1595 1595 1596 1596 1596 1596 1596 1597 1598 1599 1600 1601 1601 1602 1603 1603 1603 1603 1604 1604 1604 1605 1605 1606 1606 1606 1606 1606 1607 1607 1606 1606 1606 1606 1606 1605 1605 1605 1605 1604 1604 1605 1604 1604 1604 1604 1604 1604 1603 1602 1602 1602 1601 1601 1600 1600 1600 1600 1600 1600 1600 1600 1600 1600 1599 1599 1599 1599 1599 1599 1598 1598 1598 1597 1597
1590 1591 1591 1592 1592 1593 1593 1593 1594 1595 1595 1595 1595 1596 1596 1596 1597 1598 1598 1599 1600 1601 1601 1601 1602 1603 1603 1603 1603 1604 1604 1605 1605 1606 1606 1606 1606 1606 1607 1607 1606 1606 1605 1606 1606 1606 1606 1606 1605 1605 1604 1604 1604 1604 1604 1604 1604 1603 1603 1602 1602 1601 1601 1600 1600 1600 1600 1600 1600 1600 1600 1600 1599 1599 1599 1599 1599 1598 1598 1598 1598 1598 1598 1597 1597
1590 1591 1591 1592 1592 1593 1594 1594 1595 1595 1595 1596 1596 1596 1597 1597 1597 1598 1599 1599 1600 1601 1601 1601 1602 1602 1603 1603 1603 1604 1604 1604 1605 1605 1606 1606 1606 1607 1607 1607 1606 1606 1606 1606 1606 1606 1606 1606 1606 1606 1605 1604 1604 1604 1604 1604 1604 1603 1603 1602 1602 1601 1601 1600 1600 1600 1600 1600 1600 1600 1600 1600 1599 1599 1599 1598 1598 1598 1598 1598 1597 1597 1597 1597 1596
1589 1590 1591 1592 1592 1593 1594 1595 1595 1595 1596 1596 1596 1596 1597 1597 1597 1598 1598 1599 1600 1601 1601 1602 1601 1601 1601 1602 1603 1603 1603 1604 1604 1605 1606 1606 1606 1606 1607 1606 1606 1605 1605 1606 1606 1606 1606 1606 1606 1606 1605 1605 1605 1604 1604 1603 1603 1603 1603 1602 1602 1601 1601 1601 1601 1600 1600 1600 1600 1600 1600 1599 1599 1599 1598 1598 1598 1598 1597 1597 1597 1596 1596 1596 1595
1588 1589 1590 1591 1592 1593 1594 1594 1595 1595 1595 1595 1596 1596 1597 1597 1597 1598 1598 1599 1600 1601 1601 1602 1601 1601 1601 1601 1602 1603 1603 1604 1604 1605 1605 1606 1606 1606 1606 1606 1605 1605 1605 1606 1606 1605 1605 1605 1606 1606 1605 1605 1605 1604 1604 1603 1603 1603 1603 1602 1602 1601 1601 1601 1601 1601 1601 1600 1600 1600 1599 1599 1599 1598 1598 1598 1597 1597 1596 1596 1596 1595 1595 1595 1594
1587 1588 1589 1590 1591 1592 1593 1594 1594 1595 1595 1595 1596 1596 1596 1596 1597 1598 1598 1599 1599 1600 1601 1601 1601 1601 1601 1602 1603 1603 1604 1604 1604 1604 1605 1605 1606 1606 1605 1605 1605 1605 1605 1605 1604 1605 1605 1605 1605 1606 1605 1605 1605 1604 1603 1603 1602 1602 1602 1602 1601 1601 1601 1601 1601 1601 1601 1600 1600 1599 1599 1599 1598 1598 1597 1597 1596 1596 1596 1595 1595 1595 1594 1594 1593
1586 1587 1588 1589 1590 1591 1592 1593 1594 1594 1595 1595 1595 1596 1596 1596 1597 1598 1598 1599 1599 1599 1601 1601 1601 1601 1601 1602 1603 1603 1603 1604 1604 1604 1604 1605 1605 1605 1606 1605 1606 1606 1606 1605 1605 1605 1606 1606 1605 1605 1605 1605 1605 1604 1603 1602 1602 1601 1601 1601 1601 1601 1601 1601 1601 1601 1600 1600 1599 1599 1598 1598 1598 1597 1597 1596 1596 1596 1595 1595 1594 1594 1593 1592 1591
1585 1586 1588 1589 1589 1590 1591 1592 1593 1594 1594 1594 1595 1596 1596 1597 1597 1598 1598 1598 1599 1599 1600 1600 1601 1601 1601 1601 1602 1603 1603 1604 1604 1605 1605 1605 1605 1605 1606 1606 1606 1607 1607 1607 1607 1606 1606 1606 1606 1605 1604 1604 1604 1603 1602 1601 1601 1601 1601 1601 1601 1601 1601 1601 1600 1600 1599 1599 1599 1599 1598 1598 1597 1597 1596 1596 1596 1595 1595 1594 1593 1592 1591 1590 1589
1584 1585 1586 1588 1589 1590 1590 1591 1592 1593 1594 1594 1595 1596 1596 1597 1597 1597 1598 1598 1598 1599 1599 1600 1600 1601 1601 1601 1602 1603 1603 1604 1605 1605 1605 1605 1605 1605 1606 1606 1607 1607 1608 1608 1608 1608 1607 1606 1606 1605 1604 1603 1603 1602 1602 1601 1601 1601 1601 1601 1601 1601 1600 1600 1600 1599 1599 1599 1599 1598 1598 1597 1596 1596 1595 1595 1595 1594 1593 1593 1592 1591 1590 1589 1588
1583 1584 1585 1587 1588 1589 1590 1590 1591 1592 1593 1594 1595 1595 1596 1596 1597 1597 1597 1598 1598 1599 1599 1600 1600 1601 1601 1602 1603 1603 1604 1604 1605 1605 1605 1605 1605 1605 1606 1606 1606 1607 1607 1608 1608 1608 1607 1606 1606 1605 1604 1603 1602 1602 1602 1602 1601 1601 1601 1600 1600 1600 1600 1600 1599 1599 1599 1599 1598 1597 1597 1596 1596 1595 1594 1594 1593 1593 1592 1591 1590 1590 1588 1587 1587
1581 1583 1584 1585 1586 1588 1589 1590 1590 1591 1592 1593 1594 1595 1596 1596 1596 1597 1597 1598 1598 1598 1599 1600 1600 1601 1601 1602 1603 1603 1604 1605 1605 1605 1605 1605 1605 1605 1606 1606 1606 1607 1607 1607 1607 1607 1607 1606 1606 1606 1605 1604 1603 1602 1602 1601 1601 1601 1601 1600 1600 1600 1600 1600 1599 1599 1598 1598 1597 1597 1596 1595 1595 1594 1593 1593 1592 1591 1591 1590 1589 1588 1587 1586 1585
1580 1581 1582 1584 1585 1586 1588 1589 1590 1590 1591 1592 1593 1594 1595 1596 1596 1596 1597 1597 1598 1598 1599 1599 1600 1601 1601 1603 1603 1603 1604 1605 1605 1606 1606 1606 1606 1606 1606 1606 1606 1607 1607 1607 1607 1606 1606 1606 1606 1606 1606 1605 1604 1603 1602 1601 1601 1601 1601 1600 1600 1600 1599 1599 1599 1598 1597 1597 1596 1596 1595 1594 1594 1593 1592 1592 1591 1590 1589 1588 1587 1586 1585 1584 1584
1578 1579 1581 1582 1583 1585 1586 1587 1588 1589 1590 1591 1592 1593 1594 1595 1595 1595 1596 1597 1598 1598 1599 1599 1600 1600 1601 1602 1603 1604 1605 1605 1605 1606 1605 1605 1606 1605 1606 1606 1606 1606 1607 1607 1606 1606 1606 1606 1606 1606 1605 1604 1604 1603 1602 1602 1601 1601 1600 1600 1600 1599 1599 1599 1598 1597 1597 1596 1595 1594 1594 1593 1592 1592 1591 1590 1589 1588 1587 1587 1586 1585 1584 1583 1582
1576 1578 1579 1581 1582 1583 1585 1586 1587 1588 1589 1590 1591 1592 1593 1593 1594 1595 1595 1596 1597 1597 1598 1599 1599 1600 1600 1601 1601 1603 1604 1605 1605 1606 1605 1605 1605 1605 1605 1605 1606 1606 1606 1606 1606 1605 1605 1605 1605 1605 1604 1604 1603 1602 1602 1601 1601 1600 1600 1599 1599 1599 1598 1598 1597 1596 1596 1595 1594 1593 1592 1592 1591 1590 1589 1588 1587 1586 1585 1585 1584 1583 1582 1581 1580
1574 1576 1578 1579 1580 1581 1583 1585 1586 1587 1588 1589 1590 1591 1592 1592 1593 1594 1594 1595 1596 1597 1597 1598 1599 1599 1600 1600 1601 1602 1603 1604 1605 1605 1605 1605 1604 1604 1604 1605 1605 1605 1605 1605 1605 1605 1605 1605 1604 1603 1603 1603 1603 1602 1601 1601 1600 1600 1599 1599 1598 1597 1597 1597 1596 1595 1595 1594 1593 1592 1591 1590 1589 1588 1587 1586 1585 1584 1583 1582 1581 1580 1580 1579 1578
1572 1574 1575 1577 1578 1580 1581 1583 1584 1585 1587 1588 1589 1589 1590 1591 1592 1593 1593 1594 1595 1596 1596 1597 1598 1599 1599 1600 1600 1601 1601 1602 1603 1604 1604 1604 1603 1604 1604 1604 1604 1604 1604 1604 1604 1604 1603 1604 1604 1603 1602 1602 1601 1601 1600 1600 1600 1599 1598 1598 1597 1596 1596 1595 1594 1594 1593 1592 1591 1590 1589 1588 1587 1586 1585 1584 1583 1582 1581 1580 1579 1578 1578 1577 1576
1570 1571 1573 1575 1576 1578 1579 1581 1582 1584 1585 1586 1587 1588 1589 1590 1591 1592 1592 1593 1594 1594 1595 1596 1597 1598 1598 1599 1600 1600 1601 1601 1602 1602 1603 1603 1603 1603 1603 1603 1603 1603 1604 1604 1603 1603 1603 1603 1603 1603 1601 1601 1600 1600 1599 1599 1599 1598 1597 1596 1595 1594 1593 1593 1592 1591 1591 1590 1589 1588 1587 1586 1585 1583 1582 1581 1580 1579 1578 1577 1577 1576 1575 1574 1573
1568 1570 1571 1572 1574 1575 1577 1579 1580 1582 1583 1585 1586 1587 1588 1588 1589 1590 1591 1592 1593 1593 1594 1595 1596 1596 1597 1598 1599 1599 1600 1600 1601 1602 1602 1602 1602 1602 1602 1602 1602 1602 1603 1603 1603 1602 1602 1601 1601 1601 1601 1600 1599 1599 1598 1597 1596 1595 1594 1593 1592 1592 1591 1590 1589 1589 1588 1587 1586 1585 1584 1583 1582 1580 1579 1578 1577 1576 1575 1575 1574 1573 1572 1571 1570
1566 1568 1569 1570 1571 1573 1575 1576 1578 1580 1581 1583 1584 1585 1586 1587 1588 1589 1589 1590 1591 1592 1593 1594 1595 1595 1596 1597 1597 1598 1599 1599 1600 1600 1601 1601 1601 1601 1601 1601 1601 1601 1601 1602 1601 1601 1602 1601 1600 1600 1600 1599 1599 1598 1597 1596 1595 1594 1593 1592 1591 1591 1590 1589 1588 1587 1586 1585 1584 1583 1582 1581 1579 1578 1576 1575 1574 1574 1573 1572 1571 1570 1569 1568 1567
1563 1565 1567 1568 1569 1571 1572 1574 1576 1577 1579 1581 1582 1583 1584 1586 1586 1587 1588 1589 1590 1591 1592 1592 1593 1594 1595 1595 1596 1596 1597 1598 1598 1599 1599 1600 1600 1600 1600 1600 1600 1600 1600 1600 1600 1600 1600 1600 1599 1599 1599 1598 1598 1597 1596 1596 1595 1594 1592 1591 1590 1589 1588 1587 1586 1585 1584 1583 1582 1581 1579 1578 1576 1575 1574 1573 1572 1571 1570 1569 1568 1567 1566 1565 1564
1560 1562 1564 1565 1567 1568 1570 1572 1573 1575 1576 1578 1580 1581 1583 1584 1585 1586 1586 1587 1588 1589 1590 1591 1592 1593 1593 1594 1594 1595 1595 1596 1597 1597 1598 1599 1599 1599 1599 1599 1599 1599 1599 1599 1599 1598 1598 1598 1598 1597 1597 1596 1596 1595 1595 1594 1593 1592 1590 1589 1589 1588 1586 1585 1584 1582 1581 1580 1579 1578 1576 1575 1574 1572 1571 1571 1569 1568 1567 1566 1565 1564 1563 1562 1561
1557 1559 1561 1563 1564 1566 1568 1570 1571 1573 1574 1576 1578 1579 1580 1582 1583 1584 1585 1585 1586 1587 1589 1589 1590 1591 1592 1592 1593 1594 1594 1594 1595 1596 1596 1597 1598 1598 1598 1598 1598 1598 1598 1597 1597 1597 1596 1596 1596 1595 1594 1594 1594 1593 1593 1592 1591 1590 1588 1588 1587 1586 1585 1583 1582 1580 1579 1578 1577 1575 1574 1573 1572 1570 1569 1568 1567 1566 1565 1564 1562 1561 1560 1559 1558
1554 1556 1558 1560 1562 1564 1565 1567 1569 1571 1572 1573 1575 1577 1578 1580 1581 1582 1583 1584 1585 1586 1587 1588 1589 1590 1590 1591 1592 1592 1593 1593 1593 1594 1595 1595 1596 1597 1597 1597 1597 1597 1597 1597 1596 1596 1595 1594 1593 1593 1592 1592 1591 1591 1590 1589 1588 1587 1586 1586 1585 1584 1583 1582 1580 1579 1577 1576 1575 1574 1573 1571 1570 1568 1567 1565 1564 1563 1562 1560 1559 1558 1557 1556 1554
1551 1553 1555 1557 1559 1561 1563 1564 1566 1568 1569 1570 1572 1574 1575 1577 1579 1580 1581 1582 1583 1583 1585 1586 1587 1588 1588 1589 1590 1590 1591 1591 1592 1592 1593 1593 1594 1594 1595 1595 1596 1596 1596 1595 1595 1594 1593 1592 1591 1591 1590 1589 1588 1588 1587 1586 1585 1584 1584 1583 1582 1581 1580 1579 1578 1577 1576 1575 1574 1573 1571 1570 1568 1566 1564 1563 1561 1560 1558 1557 1556 1555 1553 1552 1551
1548 1550 1552 1554 1556 1558 1560 1562 1563 1565 1567 1568 1569 1571 1573 1574 1576 1578 1579 1580 1580 1581 1582 1583 1584 1585 1586 1587 1588 1588 1589 1589 1590 1590 1591 1592 1592 1592 1593 1593 1594 1594 1594 1594 1593 1592 1591 1590 1589 1588 1588 1587 1586 1585 1585 1584 1583 1582 1582 1581 1580 1579 1578 1577 1576 1576 1574 1574 1573 1572 1570 1568 1567 1564 1562 1561 1559 1558 1556 1555 1554 1553 1552 1551 1549
1545 1547 1549 1551 1553 1555 1557 1559 1561 1562 1564 1565 1567 1568 1570 1572 1573 1575 1576 1577 1578 1579 1580 1581 1582 1583 1584 1585 1585 1586 1587 1587 1588 1589 1589 1590 1590 1590 1591 1591 1592 1592 1592 1592 1592 1591 1590 1588 1587 1586 1585 1585 1584 1583 1583 1583 1582 1581 1580 1579 1577 1577 1576 1575 1574 1574 1573 1572 1571 1569 1567 1565 1564 1563 1561 1559 1557 1555 1554 1553 1552 1551 1550 1549 1547
1542 1544 1545 1547 1550 1552 1554 1556 1558 1560 1561 1563 1564 1566 1568 1569 1571 1572 1573 1574 1575 1576 1577 1578 1580 1581 1581 1582 1583 1583 1584 1585 1586 1586 1587 1588 1588 1588 1589 1589 1590 1590 1590 1590 1590 1589 1588 1586 1585 1584 1583 1583 1582 1582 1582 1582 1580 1579 1579 1577 1576 1574 1574 1573 1573 1572 1571 1570 1568 1566 1564 1563 1562 1560 1559 1557 1555 1553 1551 1550 1549 1548 1547 1546 1545
1538 1541 1543 1544 1546 1549 1551 1553 1555 1557 1558 1560 1561 1562 1565 1567 1568 1569 1570 1572 1573 1574 1575 1576 1577 1578 1579 1580 1580 1581 1582 1582 1583 1584 1585 1586 1586 1586 1587 1587 1588 1588 1588 1588 1588 1587 1586 1585 1583 1582 1581 1580 1580 1580 1580 1580 1579 1577 1577 1576 1575 1574 1573 1572 1571 1571 1570 1568 1566 1564 1562 1561 1559 1557 1556 1554 1553 1551 1549 1548 1546 1545 1544 1544 1542
1535 1537 1540 1542 1543 1545 1548 1549 1551 1553 1555 1556 1557 1559 1562 1564 1566 1567 1568 1569 1570 1571 1572 1573 1574 1575 1576 1577 1578 1579 1580 1580 1581 1582 1583 1583 1584 1584 1585 1585 1585 1585 1585 1585 1585 1585 1584 1583 1582 1581 1580 1578 1578 1578 1578 1578 1578 1577 1576 1575 1574 1573 1572 1570 1569 1569 1569 1566 1563 1561 1559 1558 1557 1554 1553 1552 1550 1549 1548 1546 1545 1544 1543 1542 1540
1531 1534 1537 1539 1540 1542 1544 1546 1548 1550 1551 1553 1554 1556 1558 1561 1563 1564 1565 1566 1567 1569 1570 1571 1572 1573 1574 1575 1576 1577 1578 1578 1579 1580 1580 1581 1581 1582 1583 1583 1583 1583 1583 1583 1583 1582 1582 1581 1580 1580 1578 1576 1576 1577 1577 1576 1576 1576 1575 1573 1571 1570 1569 1567 1566 1566 1566 1563 1560 1557 1556 1556 1555 1552 1551 1550 1549 1547 1546 1545 1544 1543 1542 1540 1539
1528 1531 1533 1536 1538 1539 1541 1543 1544 1546 1548 1549 1551 1553 1555 1558 1560 1562 1563 1564 1565 1566 1567 1568 1569 1570 1571 1572 1573 1574 1575 1576 1577 1577 1578 1578 1578 1579 1580 1581 1581 1581 1580 1580 1580 1580 1580 1579 1578 1578 1577 1576 1575 1574 1575 1574 1574 1573 1572 1570 1569 1567 1566 1565 1564 1563 1562 1561 1557 1554 1553 1553 1553 1551 1549 1548 1547 1545 1544 1544 1543 1542 1541 1539 1538
1525 1528 1530 1532 1535 1537 1538 1540 1541 1543 1545 1547 1548 1550 1552 1554 1557 1559 1560 1561 1562 1563 1564 1565 1566 1567 1568 1570 1571 1571 1572 1573 1574 1575 1575 1575 1576 1576 1577 1577 1578 1578 1578 1578 1577 1577 1577 1577 1575 1575 1575 1574 1573 1572 1572 1572 1571 1569 1568 1567 1566 1565 1564 1563 1562 1560 1559 1558 1555 1551 1550 1551 1550 1548 1547 1546 1544 1544 1543 1543 1542 1541 1539 1538 1536
1522 1524 1527 1529 1532 1534 1535 1537 1538 1540 1542 1544 1545 1547 1549 1551 1554 1556 1557 1559 1559 1560 1561 1562 1563 1564 1565 1566 1567 1568 1569 1570 1571 1572 1572 1572 1573 1573 1574 1574 1574 1575 1575 1575 1575 1574 1574 1573 1572 1572 1572 1572 1570 1569 1570 1569 1568 1566 1565 1564 1563 1563 1562 1560 1559 1558 1556 1556 1554 1550 1547 1547 1547 1546 1544 1544 1544 1543 1543 1542 1540 1539 1537 1535 1534
1519 1521 1524 1526 1528 1531 1533 1534 1536 1537 1539 1541 1542 1544 1546 1548 1550 1552 1554 1556 1557 1558 1559 1559 1560 1561 1562 1563 1564 1565 1566 1567 1568 1569 1569 1570 1570 1570 1570 1570 1571 1571 1571 1571 1571 1571 1571 1570 1569 1569 1569 1569 1568 1567 1567 1567 1565 1564 1563 1562 1561 1560 1559 1557 1556 1555 1554 1553 1553 1550 1546 1545 1545 1544 1543 1544 1543 1541 1540 1539 1538 1537 1535 1533 1531
1515 1517 1520 1523 1525 1527 1530 1532 1533 1535 1536 1538 1539 1541 1543 1545 1547 1549 1551 1553 1554 1555 1556 1557 1558 1558 1559 1560 1560 1561 1562 1563 1564 1565 1566 1567 1567 1567 1567 1567 1567 1567 1567 1567 1567 1567 1567 1566 1566 1565 1566 1566 1566 1565 1564 1564 1563 1562 1561 1560 1559 1558 1557 1554 1553 1552 1552 1552 1551 1550 1546 1544 1544 1543 1542 1542 1541 1539 1537 1537 1536 1534 1533 1531 1528
1512 1514 1516 1519 1522 1524 1526 1528 1530 1532 1533 1535 1536 1538 1540 1541 1544 1546 1547 1549 1550 1552 1553 1554 1555 1555 1556 1556 1557 1558 1558 1559 1560 1562 1563 1564 1564 1564 1564 1564 1564 1563 1563 1564 1564 1563 1563 1562 1562 1562 1562 1563 1563 1562 1561 1561 1561 1561 1560 1558 1557 1556 1555 1552 1551 1550 1550 1550 1550 1548 1546 1544 1544 1542 1539 1538 1538 1536 1535 1534 1533 1532 1530 1527 1525
1508 1510 1512 1515 1518 1520 1522 1524 1526 1528 1530 1532 1533 1535 1537 1538 1540 1542 1544 1545 1547 1548 1549 1550 1551 1552 1552 1553 1554 1554 1555 1556 1557 1559 1560 1561 1561 1561 1562 1562 1561 1561 1561 1561 1561 1561 1560 1560 1559 1559 1559 1560 1560 1559 1559 1559 1559 1559 1558 1556 1555 1554 1552 1551 1549 1548 1548 1548 1547 1546 1545 1544 1542 1540 1537 1534 1533 1534 1533 1532 1530 1528 1526 1524 1522
1506 1508 1509 1512 1514 1516 1518 1520 1522 1524 1527 1528 1530 1532 1533 1535 1537 1538 1540 1542 1543 1544 1545 1546 1547 1548 1548 1549 1550 1551 1552 1553 1554 1555 1556 1557 1557 1558 1558 1559 1558 1557 1558 1559 1558 1558 1558 1557 1556 1556 1556 1556 1556 1556 1556 1556 1556 1556 1555 1555 1554 1552 1551 1550 1548 1547 1546 1546 1545 1544 1543 1541 1540 1539 1537 1533 1529 1529 1530 1529 1527 1526 1524 1522 1520